Year,Month,Day,Hour,Minute,Value (Times are PST for temperature in C)
2020,08,17,00,00,24.70
2020,08,17,00,01,24.70
2020,08,17,00,02,24.70
2020,08,17,00,03,24.70
2020,08,17,00,04,24.60
2020,08,17,00,05,24.60
2020,08,17,00,06,24.60
2020,08,17,00,07,24.50
2020,08,17,00,08,24.40
2020,08,17,00,09,24.40
2020,08,17,00,10,24.40
2020,08,17,00,11,24.40
2020,08,17,00,12,24.40
2020,08,17,00,13,24.40
2020,08,17,00,14,24.40
2020,08,17,00,15,24.30
2020,08,17,00,16,24.30
2020,08,17,00,17,24.30
2020,08,17,00,18,24.30
2020,08,17,00,19,24.30
2020,08,17,00,20,24.30
2020,08,17,00,21,24.30
2020,08,17,00,22,24.20
2020,08,17,00,23,24.20
2020,08,17,00,24,24.20
2020,08,17,00,25,24.20
2020,08,17,00,26,24.10
2020,08,17,00,27,24.10
2020,08,17,00,28,24.10
2020,08,17,00,29,24.00
2020,08,17,00,30,24.00
2020,08,17,00,31,23.90
2020,08,17,00,32,23.90
2020,08,17,00,33,23.90
2020,08,17,00,34,23.80
2020,08,17,00,35,23.80
2020,08,17,00,36,23.80
2020,08,17,00,37,23.80
2020,08,17,00,38,23.70
2020,08,17,00,39,23.70
2020,08,17,00,40,23.70
2020,08,17,00,41,23.60
2020,08,17,00,42,23.60
2020,08,17,00,43,23.60
2020,08,17,00,44,23.60
2020,08,17,00,45,23.50
2020,08,17,00,46,23.50
2020,08,17,00,47,23.50
2020,08,17,00,48,23.40
2020,08,17,00,49,23.40
2020,08,17,00,50,23.40
2020,08,17,00,51,23.40
2020,08,17,00,52,23.40
2020,08,17,00,53,23.40
2020,08,17,00,54,23.40
2020,08,17,00,55,23.40
2020,08,17,00,56,23.40
2020,08,17,00,57,23.30
2020,08,17,00,58,23.30
2020,08,17,00,59,23.30
2020,08,17,01,00,23.30
2020,08,17,01,01,23.30
2020,08,17,01,02,23.20
2020,08,17,01,03,23.20
2020,08,17,01,04,23.20
2020,08,17,01,05,23.10
2020,08,17,01,06,23.00
2020,08,17,01,07,22.90
2020,08,17,01,08,22.90
2020,08,17,01,09,22.80
2020,08,17,01,10,22.80
2020,08,17,01,11,22.80
2020,08,17,01,12,22.70
2020,08,17,01,13,22.70
2020,08,17,01,14,22.60
2020,08,17,01,15,22.60
2020,08,17,01,16,22.60
2020,08,17,01,17,22.60
2020,08,17,01,18,22.50
2020,08,17,01,19,22.50
2020,08,17,01,20,22.40
2020,08,17,01,21,22.40
2020,08,17,01,22,22.40
2020,08,17,01,23,22.40
2020,08,17,01,24,22.40
2020,08,17,01,25,22.30
2020,08,17,01,26,22.30
2020,08,17,01,27,22.30
2020,08,17,01,28,22.30
2020,08,17,01,29,22.30
2020,08,17,01,30,22.30
2020,08,17,01,31,22.30
2020,08,17,01,32,22.30
2020,08,17,01,33,22.30
2020,08,17,01,34,22.30
2020,08,17,01,35,22.30
2020,08,17,01,36,22.20
2020,08,17,01,37,22.20
2020,08,17,01,38,22.20
2020,08,17,01,39,22.20
2020,08,17,01,40,22.20
2020,08,17,01,41,22.10
2020,08,17,01,42,22.10
2020,08,17,01,43,22.10
2020,08,17,01,44,22.00
2020,08,17,01,45,22.00
2020,08,17,01,46,22.00
2020,08,17,01,47,22.00
2020,08,17,01,48,22.00
2020,08,17,01,49,22.00
2020,08,17,01,50,22.00
2020,08,17,01,51,22.00
2020,08,17,01,52,22.00
2020,08,17,01,53,22.00
2020,08,17,01,54,22.10
2020,08,17,01,55,22.10
2020,08,17,01,56,22.10
2020,08,17,01,57,22.00
2020,08,17,01,58,22.00
2020,08,17,01,59,22.00
2020,08,17,02,00,22.00
2020,08,17,02,01,21.90
2020,08,17,02,02,21.90
2020,08,17,02,03,21.90
2020,08,17,02,04,21.90
2020,08,17,02,05,21.80
2020,08,17,02,06,21.80
2020,08,17,02,07,21.80
2020,08,17,02,08,21.80
2020,08,17,02,09,21.80
2020,08,17,02,10,21.80
2020,08,17,02,11,21.80
2020,08,17,02,12,21.80
2020,08,17,02,13,21.80
2020,08,17,02,14,21.70
2020,08,17,02,15,21.70
2020,08,17,02,16,21.70
2020,08,17,02,17,21.70
2020,08,17,02,18,21.70
2020,08,17,02,19,21.70
2020,08,17,02,20,21.70
2020,08,17,02,21,21.60
2020,08,17,02,22,21.60
2020,08,17,02,23,21.60
2020,08,17,02,24,21.60
2020,08,17,02,25,21.60
2020,08,17,02,26,21.70
2020,08,17,02,27,21.70
2020,08,17,02,28,21.70
2020,08,17,02,29,21.70
2020,08,17,02,30,21.70
2020,08,17,02,31,21.70
2020,08,17,02,32,21.70
2020,08,17,02,33,21.70
2020,08,17,02,34,21.70
2020,08,17,02,35,21.70
2020,08,17,02,36,21.70
2020,08,17,02,37,21.80
2020,08,17,02,38,21.80
2020,08,17,02,39,21.80
2020,08,17,02,40,21.80
2020,08,17,02,41,21.70
2020,08,17,02,42,21.70
2020,08,17,02,43,21.70
2020,08,17,02,44,21.80
2020,08,17,02,45,21.70
2020,08,17,02,46,21.70
2020,08,17,02,47,21.60
2020,08,17,02,48,21.60
2020,08,17,02,49,21.60
2020,08,17,02,50,21.50
2020,08,17,02,51,21.50
2020,08,17,02,52,21.50
2020,08,17,02,53,21.40
2020,08,17,02,54,21.40
2020,08,17,02,55,21.40
2020,08,17,02,56,21.40
2020,08,17,02,57,21.40
2020,08,17,02,58,21.40
2020,08,17,02,59,21.40
2020,08,17,03,00,21.30
2020,08,17,03,01,21.30
2020,08,17,03,02,21.30
2020,08,17,03,03,21.30
2020,08,17,03,04,21.30
2020,08,17,03,05,21.30
2020,08,17,03,06,21.30
2020,08,17,03,07,21.30
2020,08,17,03,08,21.30
2020,08,17,03,09,21.30
2020,08,17,03,10,21.30
2020,08,17,03,11,21.30
2020,08,17,03,12,21.20
2020,08,17,03,13,21.20
2020,08,17,03,14,21.20
2020,08,17,03,15,21.20
2020,08,17,03,16,21.20
2020,08,17,03,17,21.20
2020,08,17,03,18,21.20
2020,08,17,03,19,21.20
2020,08,17,03,20,21.20
2020,08,17,03,21,21.20
2020,08,17,03,22,21.20
2020,08,17,03,23,21.20
2020,08,17,03,24,21.10
2020,08,17,03,25,21.10
2020,08,17,03,26,21.10
2020,08,17,03,27,21.10
2020,08,17,03,28,21.10
2020,08,17,03,29,21.10
2020,08,17,03,30,21.10
2020,08,17,03,31,21.00
2020,08,17,03,32,21.00
2020,08,17,03,33,21.00
2020,08,17,03,34,21.00
2020,08,17,03,35,20.90
2020,08,17,03,36,20.90
2020,08,17,03,37,20.90
2020,08,17,03,38,20.90
2020,08,17,03,39,20.90
2020,08,17,03,40,20.80
2020,08,17,03,41,20.80
2020,08,17,03,42,20.80
2020,08,17,03,43,20.80
2020,08,17,03,44,20.80
2020,08,17,03,45,20.70
2020,08,17,03,46,20.70
2020,08,17,03,47,20.70
2020,08,17,03,48,20.70
2020,08,17,03,49,20.60
2020,08,17,03,50,20.60
2020,08,17,03,51,20.60
2020,08,17,03,52,20.60
2020,08,17,03,53,20.60
2020,08,17,03,54,20.50
2020,08,17,03,55,20.50
2020,08,17,03,56,20.40
2020,08,17,03,57,20.40
2020,08,17,03,58,20.40
2020,08,17,03,59,20.40
2020,08,17,04,00,20.40
2020,08,17,04,01,20.30
2020,08,17,04,02,20.30
2020,08,17,04,03,20.30
2020,08,17,04,04,20.30
2020,08,17,04,05,20.30
2020,08,17,04,06,20.30
2020,08,17,04,07,20.30
2020,08,17,04,08,20.30
2020,08,17,04,09,20.30
2020,08,17,04,10,20.30
2020,08,17,04,11,20.20
2020,08,17,04,12,20.20
2020,08,17,04,13,20.20
2020,08,17,04,14,20.20
2020,08,17,04,15,20.20
2020,08,17,04,16,20.20
2020,08,17,04,17,20.20
2020,08,17,04,18,20.20
2020,08,17,04,19,20.10
2020,08,17,04,20,20.10
2020,08,17,04,21,20.10
2020,08,17,04,22,20.10
2020,08,17,04,23,20.10
2020,08,17,04,24,20.10
2020,08,17,04,25,20.10
2020,08,17,04,26,20.00
2020,08,17,04,27,20.00
2020,08,17,04,28,20.00
2020,08,17,04,29,20.00
2020,08,17,04,30,20.00
2020,08,17,04,31,20.00
2020,08,17,04,32,20.00
2020,08,17,04,33,19.90
2020,08,17,04,34,19.90
2020,08,17,04,35,19.90
2020,08,17,04,36,19.90
2020,08,17,04,37,19.90
2020,08,17,04,38,19.90
2020,08,17,04,39,19.90
2020,08,17,04,40,19.90
2020,08,17,04,41,19.90
2020,08,17,04,42,19.90
2020,08,17,04,43,19.90
2020,08,17,04,44,19.90
2020,08,17,04,45,19.90
2020,08,17,04,46,19.90
2020,08,17,04,47,19.90
2020,08,17,04,48,19.90
2020,08,17,04,49,19.90
2020,08,17,04,50,19.80
2020,08,17,04,51,19.80
2020,08,17,04,52,19.90
2020,08,17,04,53,19.90
2020,08,17,04,54,19.90
2020,08,17,04,55,19.90
2020,08,17,04,56,19.90
2020,08,17,04,57,19.90
2020,08,17,04,58,19.90
2020,08,17,04,59,19.90
2020,08,17,05,00,19.90
2020,08,17,05,01,19.90
2020,08,17,05,02,20.00
2020,08,17,05,03,20.00
2020,08,17,05,04,20.00
2020,08,17,05,05,20.10
2020,08,17,05,06,20.10
2020,08,17,05,07,20.20
2020,08,17,05,08,20.20
2020,08,17,05,09,20.20
2020,08,17,05,10,20.20
2020,08,17,05,11,20.30
2020,08,17,05,12,20.30
2020,08,17,05,13,20.30
2020,08,17,05,14,20.30
2020,08,17,05,15,20.30
2020,08,17,05,16,20.40
2020,08,17,05,17,20.40
2020,08,17,05,18,20.40
2020,08,17,05,19,20.30
2020,08,17,05,20,20.30
2020,08,17,05,21,20.30
2020,08,17,05,22,20.30
2020,08,17,05,23,20.30
2020,08,17,05,24,20.30
2020,08,17,05,25,20.30
2020,08,17,05,26,20.30
2020,08,17,05,27,20.30
2020,08,17,05,28,20.40
2020,08,17,05,29,20.40
2020,08,17,05,30,20.40
2020,08,17,05,31,20.40
2020,08,17,05,32,20.50
2020,08,17,05,33,20.50
2020,08,17,05,34,20.60
2020,08,17,05,35,20.70
2020,08,17,05,36,20.80
2020,08,17,05,37,20.90
2020,08,17,05,38,21.00
2020,08,17,05,39,21.10
2020,08,17,05,40,21.20
2020,08,17,05,41,21.30
2020,08,17,05,42,21.40
2020,08,17,05,43,21.50
2020,08,17,05,44,21.60
2020,08,17,05,45,21.70
2020,08,17,05,46,21.80
2020,08,17,05,47,21.80
2020,08,17,05,48,21.80
2020,08,17,05,49,21.90
2020,08,17,05,50,21.90
2020,08,17,05,51,21.90
2020,08,17,05,52,21.90
2020,08,17,05,53,21.90
2020,08,17,05,54,22.10
2020,08,17,05,55,22.10
2020,08,17,05,56,22.10
2020,08,17,05,57,22.10
2020,08,17,05,58,22.10
2020,08,17,05,59,22.10
2020,08,17,06,00,22.00
2020,08,17,06,01,22.00
2020,08,17,06,02,22.00
2020,08,17,06,03,22.00
2020,08,17,06,04,22.00
2020,08,17,06,05,22.00
2020,08,17,06,06,22.10
2020,08,17,06,07,22.10
2020,08,17,06,08,22.10
2020,08,17,06,09,22.10
2020,08,17,06,10,22.10
2020,08,17,06,11,22.10
2020,08,17,06,12,22.10
2020,08,17,06,13,22.10
2020,08,17,06,14,22.00
2020,08,17,06,15,22.00
2020,08,17,06,16,22.00
2020,08,17,06,17,21.90
2020,08,17,06,18,21.90
2020,08,17,06,19,21.90
2020,08,17,06,20,21.90
2020,08,17,06,21,21.90
2020,08,17,06,22,21.90
2020,08,17,06,23,21.90
2020,08,17,06,24,21.90
2020,08,17,06,25,21.90
2020,08,17,06,26,21.90
2020,08,17,06,27,21.90
2020,08,17,06,28,21.90
2020,08,17,06,29,21.90
2020,08,17,06,30,21.80
2020,08,17,06,31,21.80
2020,08,17,06,32,21.80
2020,08,17,06,33,21.90
2020,08,17,06,34,21.90
2020,08,17,06,35,21.90
2020,08,17,06,36,21.90
2020,08,17,06,37,21.90
2020,08,17,06,38,21.90
2020,08,17,06,39,21.90
2020,08,17,06,40,21.90
2020,08,17,06,41,21.90
2020,08,17,06,42,21.80
2020,08,17,06,43,21.80
2020,08,17,06,44,21.80
2020,08,17,06,45,21.80
2020,08,17,06,46,21.80
2020,08,17,06,47,21.80
2020,08,17,06,48,21.70
2020,08,17,06,49,21.70
2020,08,17,06,50,21.60
2020,08,17,06,51,21.60
2020,08,17,06,52,21.60
2020,08,17,06,53,21.50
2020,08,17,06,54,21.50
2020,08,17,06,55,21.40
2020,08,17,06,56,21.40
2020,08,17,06,57,21.40
2020,08,17,06,58,21.40
2020,08,17,06,59,21.30
2020,08,17,07,00,21.30
2020,08,17,07,01,21.30
2020,08,17,07,02,21.30
2020,08,17,07,03,21.30
2020,08,17,07,04,21.30
2020,08,17,07,05,21.30
2020,08,17,07,06,21.30
2020,08,17,07,07,21.30
2020,08,17,07,08,21.30
2020,08,17,07,09,21.40
2020,08,17,07,10,21.40
2020,08,17,07,11,21.40
2020,08,17,07,12,21.50
2020,08,17,07,13,21.50
2020,08,17,07,14,21.60
2020,08,17,07,15,21.60
2020,08,17,07,16,21.60
2020,08,17,07,17,21.60
2020,08,17,07,18,21.60
2020,08,17,07,19,21.60
2020,08,17,07,20,21.60
2020,08,17,07,21,21.70
2020,08,17,07,22,21.70
2020,08,17,07,23,21.70
2020,08,17,07,24,21.70
2020,08,17,07,25,21.70
2020,08,17,07,26,21.70
2020,08,17,07,27,21.70
2020,08,17,07,28,21.80
2020,08,17,07,29,21.80
2020,08,17,07,30,21.80
2020,08,17,07,31,21.80
2020,08,17,07,32,21.80
2020,08,17,07,33,21.80
2020,08,17,07,34,21.80
2020,08,17,07,35,21.80
2020,08,17,07,36,21.80
2020,08,17,07,37,21.80
2020,08,17,07,38,21.80
2020,08,17,07,39,21.80
2020,08,17,07,40,21.80
2020,08,17,07,41,21.80
2020,08,17,07,42,21.80
2020,08,17,07,43,21.80
2020,08,17,07,44,21.80
2020,08,17,07,45,21.80
2020,08,17,07,46,21.80
2020,08,17,07,47,21.80
2020,08,17,07,48,21.80
2020,08,17,07,49,21.80
2020,08,17,07,50,21.80
2020,08,17,07,51,21.80
2020,08,17,07,52,21.80
2020,08,17,07,53,21.80
2020,08,17,07,54,21.80
2020,08,17,07,55,21.80
2020,08,17,07,56,21.80
2020,08,17,07,57,21.80
2020,08,17,07,58,21.80
2020,08,17,07,59,21.80
2020,08,17,08,00,21.80
2020,08,17,08,01,21.80
2020,08,17,08,02,21.80
2020,08,17,08,03,21.90
2020,08,17,08,04,21.90
2020,08,17,08,05,21.90
2020,08,17,08,06,22.00
2020,08,17,08,07,22.00
2020,08,17,08,08,22.10
2020,08,17,08,09,22.10
2020,08,17,08,10,22.20
2020,08,17,08,11,22.20
2020,08,17,08,12,22.30
2020,08,17,08,13,22.30
2020,08,17,08,14,22.30
2020,08,17,08,15,22.40
2020,08,17,08,16,22.50
2020,08,17,08,17,22.50
2020,08,17,08,18,22.60
2020,08,17,08,19,22.60
2020,08,17,08,20,22.70
2020,08,17,08,21,22.80
2020,08,17,08,22,22.80
2020,08,17,08,23,22.80
2020,08,17,08,24,22.90
2020,08,17,08,25,22.90
2020,08,17,08,26,23.00
2020,08,17,08,27,23.00
2020,08,17,08,28,23.10
2020,08,17,08,29,23.10
2020,08,17,08,30,23.10
2020,08,17,08,31,23.20
2020,08,17,08,32,23.20
2020,08,17,08,33,23.20
2020,08,17,08,34,23.20
2020,08,17,08,35,23.30
2020,08,17,08,36,23.30
2020,08,17,08,37,23.30
2020,08,17,08,38,23.30
2020,08,17,08,39,23.30
2020,08,17,08,40,23.30
2020,08,17,08,41,23.40
2020,08,17,08,42,23.40
2020,08,17,08,43,23.40
2020,08,17,08,44,23.50
2020,08,17,08,45,23.50
2020,08,17,08,46,23.50
2020,08,17,08,47,23.60
2020,08,17,08,48,23.60
2020,08,17,08,49,23.70
2020,08,17,08,50,23.70
2020,08,17,08,51,23.80
2020,08,17,08,52,23.80
2020,08,17,08,53,23.90
2020,08,17,08,54,24.00
2020,08,17,08,55,24.10
2020,08,17,08,56,24.10
2020,08,17,08,57,24.20
2020,08,17,08,58,24.20
2020,08,17,08,59,24.30
2020,08,17,09,00,24.30
2020,08,17,09,01,24.40
2020,08,17,09,02,24.40
2020,08,17,09,03,24.40
2020,08,17,09,04,24.40
2020,08,17,09,05,24.50
2020,08,17,09,06,24.50
2020,08,17,09,07,24.60
2020,08,17,09,08,24.60
2020,08,17,09,09,24.60
2020,08,17,09,10,24.60
2020,08,17,09,11,24.70
2020,08,17,09,12,24.70
2020,08,17,09,13,24.70
2020,08,17,09,14,24.70
2020,08,17,09,15,24.70
2020,08,17,09,16,24.70
2020,08,17,09,17,24.70
2020,08,17,09,18,24.70
2020,08,17,09,19,24.70
2020,08,17,09,20,24.70
2020,08,17,09,21,24.70
2020,08,17,09,22,24.70
2020,08,17,09,23,24.70
2020,08,17,09,24,24.60
2020,08,17,09,25,24.60
2020,08,17,09,26,24.60
2020,08,17,09,27,24.60
2020,08,17,09,28,24.60
2020,08,17,09,29,24.60
2020,08,17,09,30,24.60
2020,08,17,09,31,24.70
2020,08,17,09,32,24.70
2020,08,17,09,33,24.70
2020,08,17,09,34,24.60
2020,08,17,09,35,24.70
2020,08,17,09,36,24.70
2020,08,17,09,37,24.70
2020,08,17,09,38,24.70
2020,08,17,09,39,24.70
2020,08,17,09,40,24.70
2020,08,17,09,41,24.70
2020,08,17,09,42,24.70
2020,08,17,09,43,24.70
2020,08,17,09,44,24.70
2020,08,17,09,45,24.80
2020,08,17,09,46,24.80
2020,08,17,09,47,24.80
2020,08,17,09,48,24.90
2020,08,17,09,49,24.90
2020,08,17,09,50,25.00
2020,08,17,09,51,25.10
2020,08,17,09,52,25.10
2020,08,17,09,53,25.30
2020,08,17,09,54,25.40
2020,08,17,09,55,25.50
2020,08,17,09,56,25.50
2020,08,17,09,57,25.60
2020,08,17,09,58,25.70
2020,08,17,09,59,25.70
2020,08,17,10,00,25.80
2020,08,17,10,01,25.90
2020,08,17,10,02,26.00
2020,08,17,10,03,26.10
2020,08,17,10,04,26.20
2020,08,17,10,05,26.30
2020,08,17,10,06,26.30
2020,08,17,10,07,26.40
2020,08,17,10,08,26.50
2020,08,17,10,09,26.60
2020,08,17,10,10,26.60
2020,08,17,10,11,26.60
2020,08,17,10,12,26.60
2020,08,17,10,13,26.60
2020,08,17,10,14,26.60
2020,08,17,10,15,26.60
2020,08,17,10,16,26.60
2020,08,17,10,17,26.60
2020,08,17,10,18,26.60
2020,08,17,10,19,26.70
2020,08,17,10,20,26.70
2020,08,17,10,21,26.80
2020,08,17,10,22,26.80
2020,08,17,10,23,26.90
2020,08,17,10,24,26.90
2020,08,17,10,25,27.00
2020,08,17,10,26,27.00
2020,08,17,10,27,27.10
2020,08,17,10,28,27.20
2020,08,17,10,29,27.20
2020,08,17,10,30,27.30
2020,08,17,10,31,27.30
2020,08,17,10,32,27.40
2020,08,17,10,33,27.40
2020,08,17,10,34,27.50
2020,08,17,10,35,27.60
2020,08,17,10,36,27.70
2020,08,17,10,37,27.70
2020,08,17,10,38,27.80
2020,08,17,10,39,27.90
2020,08,17,10,40,27.90
2020,08,17,10,41,28.00
2020,08,17,10,42,28.00
2020,08,17,10,43,27.90
2020,08,17,10,44,27.80
2020,08,17,10,45,27.80
2020,08,17,10,46,27.80
2020,08,17,10,47,27.80
2020,08,17,10,48,27.80
2020,08,17,10,49,27.80
2020,08,17,10,50,27.70
2020,08,17,10,51,27.70
2020,08,17,10,52,27.70
2020,08,17,10,53,27.70
2020,08,17,10,54,27.60
2020,08,17,10,55,27.60
2020,08,17,10,56,27.60
2020,08,17,10,57,27.60
2020,08,17,10,58,27.70
2020,08,17,10,59,27.70
2020,08,17,11,00,27.70
2020,08,17,11,01,27.80
2020,08,17,11,02,27.80
2020,08,17,11,03,27.90
2020,08,17,11,04,27.90
2020,08,17,11,05,27.90
2020,08,17,11,06,27.80
2020,08,17,11,07,27.80
2020,08,17,11,08,27.80
2020,08,17,11,09,27.80
2020,08,17,11,10,27.80
2020,08,17,11,11,27.70
2020,08,17,11,12,27.60
2020,08,17,11,13,27.60
2020,08,17,11,14,27.60
2020,08,17,11,15,27.60
2020,08,17,11,16,27.70
2020,08,17,11,17,27.70
2020,08,17,11,18,27.80
2020,08,17,11,19,27.80
2020,08,17,11,20,27.80
2020,08,17,11,21,27.80
2020,08,17,11,22,27.70
2020,08,17,11,23,27.70
2020,08,17,11,24,27.70
2020,08,17,11,25,27.60
2020,08,17,11,26,27.60
2020,08,17,11,27,27.60
2020,08,17,11,28,27.60
2020,08,17,11,29,27.60
2020,08,17,11,30,27.70
2020,08,17,11,31,27.70
2020,08,17,11,32,27.70
2020,08,17,11,33,27.80
2020,08,17,11,34,27.80
2020,08,17,11,35,27.90
2020,08,17,11,36,28.00
2020,08,17,11,37,28.10
2020,08,17,11,38,28.20
2020,08,17,11,39,28.30
2020,08,17,11,40,28.40
2020,08,17,11,41,28.40
2020,08,17,11,42,28.50
2020,08,17,11,43,28.50
2020,08,17,11,44,28.50
2020,08,17,11,45,28.60
2020,08,17,11,46,28.60
2020,08,17,11,47,28.70
2020,08,17,11,48,28.70
2020,08,17,11,49,28.70
2020,08,17,11,50,28.60
2020,08,17,11,51,28.50
2020,08,17,11,52,28.40
2020,08,17,11,53,28.30
2020,08,17,11,54,28.20
2020,08,17,11,55,28.10
2020,08,17,11,56,28.00
2020,08,17,11,57,27.90
2020,08,17,11,58,27.90
2020,08,17,11,59,27.90
2020,08,17,12,00,28.00
2020,08,17,12,01,28.00
2020,08,17,12,02,28.10
2020,08,17,12,03,28.20
2020,08,17,12,04,28.20
2020,08,17,12,05,28.30
2020,08,17,12,06,28.30
2020,08,17,12,07,28.40
2020,08,17,12,08,28.40
2020,08,17,12,09,28.40
2020,08,17,12,10,28.40
2020,08,17,12,11,28.40
2020,08,17,12,12,28.40
2020,08,17,12,13,28.40
2020,08,17,12,14,28.40
2020,08,17,12,15,28.40
2020,08,17,12,16,28.40
2020,08,17,12,17,28.30
2020,08,17,12,18,28.30
2020,08,17,12,19,28.20
2020,08,17,12,20,28.20
2020,08,17,12,21,28.10
2020,08,17,12,22,28.10
2020,08,17,12,23,28.10
2020,08,17,12,24,28.20
2020,08,17,12,25,28.20
2020,08,17,12,26,28.20
2020,08,17,12,27,28.30
2020,08,17,12,28,28.30
2020,08,17,12,29,28.30
2020,08,17,12,30,28.30
2020,08,17,12,31,28.30
2020,08,17,12,32,28.20
2020,08,17,12,33,28.20
2020,08,17,12,34,28.20
2020,08,17,12,35,28.00
2020,08,17,12,36,28.00
2020,08,17,12,37,28.00
2020,08,17,12,38,28.00
2020,08,17,12,39,28.00
2020,08,17,12,40,28.10
2020,08,17,12,41,28.10
2020,08,17,12,42,28.00
2020,08,17,12,43,28.00
2020,08,17,12,44,28.10
2020,08,17,12,45,28.10
2020,08,17,12,46,28.20
2020,08,17,12,47,28.20
2020,08,17,12,48,28.30
2020,08,17,12,49,28.40
2020,08,17,12,50,28.50
2020,08,17,12,51,28.50
2020,08,17,12,52,28.50
2020,08,17,12,53,28.50
2020,08,17,12,54,28.40
2020,08,17,12,55,28.40
2020,08,17,12,56,28.40
2020,08,17,12,57,28.40
2020,08,17,12,58,28.30
2020,08,17,12,59,28.30
2020,08,17,13,00,28.30
2020,08,17,13,01,28.40
2020,08,17,13,02,28.40
2020,08,17,13,03,28.40
2020,08,17,13,04,28.40
2020,08,17,13,05,28.30
2020,08,17,13,06,28.30
2020,08,17,13,07,28.30
2020,08,17,13,08,28.30
2020,08,17,13,09,28.30
2020,08,17,13,10,28.20
2020,08,17,13,11,28.20
2020,08,17,13,12,28.20
2020,08,17,13,13,28.30
2020,08,17,13,14,28.30
2020,08,17,13,15,28.30
2020,08,17,13,16,28.30
2020,08,17,13,17,28.20
2020,08,17,13,18,28.20
2020,08,17,13,19,28.20
2020,08,17,13,20,28.20
2020,08,17,13,21,28.30
2020,08,17,13,22,28.30
2020,08,17,13,23,28.30
2020,08,17,13,24,28.40
2020,08,17,13,25,28.50
2020,08,17,13,26,28.60
2020,08,17,13,27,28.70
2020,08,17,13,28,28.80
2020,08,17,13,29,28.80
2020,08,17,13,30,28.90
2020,08,17,13,31,28.90
2020,08,17,13,32,28.90
2020,08,17,13,33,28.80
2020,08,17,13,34,28.70
2020,08,17,13,35,28.60
2020,08,17,13,36,28.50
2020,08,17,13,37,28.40
2020,08,17,13,38,28.30
2020,08,17,13,39,28.20
2020,08,17,13,40,28.20
2020,08,17,13,41,28.20
2020,08,17,13,42,28.30
2020,08,17,13,43,28.30
2020,08,17,13,44,28.40
2020,08,17,13,45,28.40
2020,08,17,13,46,28.40
2020,08,17,13,47,28.30
2020,08,17,13,48,28.30
2020,08,17,13,49,28.30
2020,08,17,13,50,28.30
2020,08,17,13,51,28.30
2020,08,17,13,52,28.20
2020,08,17,13,53,28.20
2020,08,17,13,54,28.20
2020,08,17,13,55,28.20
2020,08,17,13,56,28.20
2020,08,17,13,57,28.30
2020,08,17,13,58,28.40
2020,08,17,13,59,28.50
2020,08,17,14,00,28.60
2020,08,17,14,01,28.70
2020,08,17,14,02,28.80
2020,08,17,14,03,28.90
2020,08,17,14,04,28.90
2020,08,17,14,05,29.00
2020,08,17,14,06,29.10
2020,08,17,14,07,29.10
2020,08,17,14,08,29.20
2020,08,17,14,09,29.20
2020,08,17,14,10,29.30
2020,08,17,14,11,29.30
2020,08,17,14,12,29.30
2020,08,17,14,13,29.30
2020,08,17,14,14,29.30
2020,08,17,14,15,29.30
2020,08,17,14,16,29.30
2020,08,17,14,17,29.30
2020,08,17,14,18,29.30
2020,08,17,14,19,29.30
2020,08,17,14,20,29.20
2020,08,17,14,21,29.10
2020,08,17,14,22,29.10
2020,08,17,14,23,29.00
2020,08,17,14,24,28.90
2020,08,17,14,25,28.80
2020,08,17,14,26,28.70
2020,08,17,14,27,28.70
2020,08,17,14,28,28.60
2020,08,17,14,29,28.60
2020,08,17,14,30,28.70
2020,08,17,14,31,28.70
2020,08,17,14,32,28.80
2020,08,17,14,33,28.80
2020,08,17,14,34,28.90
2020,08,17,14,35,28.90
2020,08,17,14,36,28.90
2020,08,17,14,37,28.80
2020,08,17,14,38,28.80
2020,08,17,14,39,28.80
2020,08,17,14,40,28.80
2020,08,17,14,41,28.80
2020,08,17,14,42,28.80
2020,08,17,14,43,28.80
2020,08,17,14,44,28.80
2020,08,17,14,45,28.70
2020,08,17,14,46,28.70
2020,08,17,14,47,28.70
2020,08,17,14,48,28.70
2020,08,17,14,49,28.70
2020,08,17,14,50,28.70
2020,08,17,14,51,28.70
2020,08,17,14,52,28.70
2020,08,17,14,53,28.70
2020,08,17,14,54,28.70
2020,08,17,14,55,28.80
2020,08,17,14,56,28.80
2020,08,17,14,57,28.90
2020,08,17,14,58,28.90
2020,08,17,14,59,28.90
2020,08,17,15,00,29.00
2020,08,17,15,01,29.10
2020,08,17,15,02,29.10
2020,08,17,15,03,29.20
2020,08,17,15,04,29.10
2020,08,17,15,05,29.00
2020,08,17,15,06,28.90
2020,08,17,15,07,28.90
2020,08,17,15,08,28.80
2020,08,17,15,09,28.80
2020,08,17,15,10,28.70
2020,08,17,15,11,28.70
2020,08,17,15,12,28.60
2020,08,17,15,13,28.60
2020,08,17,15,14,28.50
2020,08,17,15,15,28.50
2020,08,17,15,16,28.50
2020,08,17,15,17,28.60
2020,08,17,15,18,28.60
2020,08,17,15,19,28.60
2020,08,17,15,20,28.50
2020,08,17,15,21,28.60
2020,08,17,15,22,28.60
2020,08,17,15,23,28.70
2020,08,17,15,24,28.70
2020,08,17,15,25,28.80
2020,08,17,15,26,28.80
2020,08,17,15,27,28.90
2020,08,17,15,28,28.90
2020,08,17,15,29,28.90
2020,08,17,15,30,29.00
2020,08,17,15,31,29.00
2020,08,17,15,32,29.10
2020,08,17,15,33,29.10
2020,08,17,15,34,29.10
2020,08,17,15,35,29.00
2020,08,17,15,36,28.90
2020,08,17,15,37,28.90
2020,08,17,15,38,28.90
2020,08,17,15,39,28.90
2020,08,17,15,40,29.00
2020,08,17,15,41,29.00
2020,08,17,15,42,29.00
2020,08,17,15,43,28.90
2020,08,17,15,44,28.90
2020,08,17,15,45,28.90
2020,08,17,15,46,28.80
2020,08,17,15,47,28.80
2020,08,17,15,48,28.70
2020,08,17,15,49,28.70
2020,08,17,15,50,28.70
2020,08,17,15,51,28.70
2020,08,17,15,52,28.70
2020,08,17,15,53,28.70
2020,08,17,15,54,28.70
2020,08,17,15,55,28.70
2020,08,17,15,56,28.70
2020,08,17,15,57,28.70
2020,08,17,15,58,28.70
2020,08,17,15,59,28.80
2020,08,17,16,00,28.80
2020,08,17,16,01,28.80
2020,08,17,16,02,28.80
2020,08,17,16,03,28.80
2020,08,17,16,04,28.80
2020,08,17,16,05,28.80
2020,08,17,16,06,28.80
2020,08,17,16,07,28.80
2020,08,17,16,08,28.80
2020,08,17,16,09,28.70
2020,08,17,16,10,28.80
2020,08,17,16,11,28.80
2020,08,17,16,12,28.80
2020,08,17,16,13,28.70
2020,08,17,16,14,28.70
2020,08,17,16,15,28.70
2020,08,17,16,16,28.60
2020,08,17,16,17,28.60
2020,08,17,16,18,28.70
2020,08,17,16,19,28.70
2020,08,17,16,20,28.70
2020,08,17,16,21,28.70
2020,08,17,16,22,28.70
2020,08,17,16,23,28.60
2020,08,17,16,24,28.60
2020,08,17,16,25,28.60
2020,08,17,16,26,28.50
2020,08,17,16,27,28.50
2020,08,17,16,28,28.40
2020,08,17,16,29,28.40
2020,08,17,16,30,28.30
2020,08,17,16,31,28.30
2020,08,17,16,32,28.30
2020,08,17,16,33,28.30
2020,08,17,16,34,28.20
2020,08,17,16,35,28.20
2020,08,17,16,36,28.20
2020,08,17,16,37,28.10
2020,08,17,16,38,28.10
2020,08,17,16,39,28.10
2020,08,17,16,40,28.10
2020,08,17,16,41,28.10
2020,08,17,16,42,28.20
2020,08,17,16,43,28.20
2020,08,17,16,44,28.30
2020,08,17,16,45,28.30
2020,08,17,16,46,28.40
2020,08,17,16,47,28.40
2020,08,17,16,48,28.40
2020,08,17,16,49,28.40
2020,08,17,16,50,28.40
2020,08,17,16,51,28.50
2020,08,17,16,52,28.50
2020,08,17,16,53,28.50
2020,08,17,16,54,28.50
2020,08,17,16,55,28.50
2020,08,17,16,56,28.40
2020,08,17,16,57,28.40
2020,08,17,16,58,28.40
2020,08,17,16,59,28.40
2020,08,17,17,00,28.40
2020,08,17,17,01,28.40
2020,08,17,17,02,28.40
2020,08,17,17,03,28.30
2020,08,17,17,04,28.20
2020,08,17,17,05,28.10
2020,08,17,17,06,27.90
2020,08,17,17,07,27.80
2020,08,17,17,08,27.70
2020,08,17,17,09,27.60
2020,08,17,17,10,27.60
2020,08,17,17,11,27.60
2020,08,17,17,12,27.50
2020,08,17,17,13,27.50
2020,08,17,17,14,27.40
2020,08,17,17,15,27.40
2020,08,17,17,16,27.40
2020,08,17,17,17,27.40
2020,08,17,17,18,27.40
2020,08,17,17,19,27.40